When you browse on this site, cookies collect data to enhance your experience and personalize the content and advertising you see.
Visit our Privacy Policy to learn more. By continuing to use the site, you agree to this use of cookies and data.
  • In Czech Republic
  • List of Countries
  • For 7 days
  • Water Temperature
  • Weather Map
  • Weather Widgets
  • user-avatar
    Login

    Hourly Weather Roskov

    Today, 30 May, Saturday

    Time Temperature Precipitation Wind Pressure Humidity
    00:00 +14°C° 0.1 mm 5 mps 743 mmHg 95%
    01:00 +14°C° 0.1 mm 5 mps 742 mmHg 94%
    02:00 +14°C° 0.1 mm 5 mps 742 mmHg 94%
    03:00 +14°C° 0.3 mm 6 mps 742 mmHg 94%
    04:00 +14°C° 0.3 mm 6 mps 741 mmHg 94%
    05:00 +15°C° 0.3 mm 6 mps 741 mmHg 94%
    06:00 +15°C° 0.7 mm 7 mps 741 mmHg 94%
    07:00 +15°C° 0.7 mm 7 mps 741 mmHg 93%
    08:00 +15°C° 0.7 mm 7 mps 740 mmHg 93%
    09:00 +16°C° 0 mm 7 mps 740 mmHg 91%
    10:00 +16°C° 0 mm 7 mps 740 mmHg 90%
    11:00 +16°C° 0 mm 7 mps 739 mmHg 88%
    12:00 +17°C° 0.3 mm 8 mps 739 mmHg 88%
    13:00 +17°C° 0.3 mm 8 mps 739 mmHg 89%
    14:00 +17°C° 0.3 mm 8 mps 738 mmHg 89%
    15:00 +17°C° 1.6 mm 8 mps 738 mmHg 91%
    16:00 +17°C° 1.6 mm 9 mps 737 mmHg 92%
    17:00 +16°C° 1.6 mm 9 mps 737 mmHg 94%
    18:00 +16°C° 4.1 mm 8 mps 737 mmHg 95%
    19:00 +15°C° 4.1 mm 7 mps 737 mmHg 96%
    20:00 +15°C° 4.1 mm 6 mps 737 mmHg 96%
    21:00 +14°C° 1.1 mm 5 mps 738 mmHg 96%
    22:00 +14°C° 1.1 mm 3 mps 738 mmHg 97%
    23:00 +14°C° 1.1 mm 2 mps 738 mmHg 97%

    Tomorrow, 31 May, Sunday

    Time Temperature Precipitation Wind Pressure Humidity
    00:00 +14°C° 0 mm 2 mps 738 mmHg 97%
    01:00 +14°C° 0 mm 2 mps 738 mmHg 97%
    02:00 +13°C° 0 mm 2 mps 739 mmHg 97%
    03:00 +13°C° 0 mm 2 mps 739 mmHg 97%
    04:00 +12°C° 0 mm 3 mps 739 mmHg 98%
    05:00 +12°C° 0 mm 3 mps 739 mmHg 98%
    06:00 +13°C° 0.1 mm 3 mps 739 mmHg 96%
    07:00 +14°C° 0.1 mm 3 mps 740 mmHg 95%
    08:00 +14°C° 0.1 mm 3 mps 740 mmHg 94%
    09:00 +14°C° 0.9 mm 4 mps 740 mmHg 92%
    10:00 +14°C° 0.9 mm 6 mps 741 mmHg 90%
    11:00 +14°C° 0.9 mm 7 mps 741 mmHg 89%
    12:00 +12°C° 0.5 mm 8 mps 742 mmHg 90%
    13:00 +11°C° 0.5 mm 8 mps 742 mmHg 90%
    14:00 +10°C° 0.5 mm 8 mps 742 mmHg 91%
    15:00 +10°C° 0.7 mm 7 mps 743 mmHg 91%
    16:00 +10°C° 0.7 mm 6 mps 743 mmHg 90%
    17:00 +10°C° 0.7 mm 5 mps 743 mmHg 90%
    18:00 +10°C° 0.1 mm 5 mps 744 mmHg 90%
    19:00 +11°C° 0.1 mm 4 mps 744 mmHg 90%
    20:00 +10°C° 0.1 mm 4 mps 744 mmHg 90%
    21:00 +10°C° 0 mm 4 mps 745 mmHg 89%
    22:00 +8°C° 0 mm 5 mps 745 mmHg 89%
    23:00 +7°C° 0 mm 5 mps 745 mmHg 89%

    Day after tomorrow, 1 June, Monday

    Time Temperature Precipitation Wind Pressure Humidity
    00:00 +6°C° 0 mm 5 mps 745 mmHg 88%
    01:00 +5°C° 0 mm 5 mps 745 mmHg 88%
    02:00 +3°C° 0 mm 5 mps 745 mmHg 88%
    03:00 +5°C° 0 mm 5 mps 745 mmHg 86%
    04:00 +5°C° 0 mm 5 mps 746 mmHg 83%
    05:00 +5°C° 0 mm 6 mps 746 mmHg 81%
    06:00 +7°C° 0 mm 6 mps 746 mmHg 78%
    07:00 +7°C° 0 mm 6 mps 746 mmHg 74%
    08:00 +8°C° 0 mm 7 mps 746 mmHg 71%
    09:00 +8°C° 0 mm 6 mps 746 mmHg 71%
    10:00 +8°C° 0 mm 6 mps 746 mmHg 70%
    11:00 +9°C° 0 mm 6 mps 747 mmHg 70%
    12:00 +9°C° 0.1 mm 6 mps 747 mmHg 71%
    13:00 +9°C° 0.1 mm 6 mps 747 mmHg 72%
    14:00 +9°C° 0.1 mm 6 mps 747 mmHg 73%
    15:00 +9°C° 0.1 mm 6 mps 747 mmHg 75%
    16:00 +9°C° 0.1 mm 6 mps 747 mmHg 77%
    17:00 +8°C° 0.1 mm 6 mps 747 mmHg 79%
    18:00 +8°C° 0 mm 5 mps 747 mmHg 81%
    19:00 +7°C° 0 mm 5 mps 747 mmHg 83%
    20:00 +7°C° 0 mm 5 mps 747 mmHg 85%
    21:00 +7°C° 0.1 mm 5 mps 747 mmHg 87%
    22:00 +7°C° 0.1 mm 5 mps 747 mmHg 89%
    23:00 +7°C° 0.1 mm 5 mps 747 mmHg 91%

    2 June, Tuesday

    Time Temperature Precipitation Wind Pressure Humidity
    00:00 +6°C° 0.1 mm 4 mps 746 mmHg 92%
    01:00 +6°C° 0.1 mm 4 mps 746 mmHg 93%
    02:00 +6°C° 0.1 mm 4 mps 746 mmHg 94%
    03:00 +6°C° 0 mm 4 mps 746 mmHg 94%
    04:00 +7°C° 0 mm 5 mps 745 mmHg 94%
    05:00 +7°C° 0 mm 5 mps 745 mmHg 93%
    06:00 +8°C° 0 mm 5 mps 745 mmHg 89%
    07:00 +8°C° 0 mm 5 mps 745 mmHg 86%
    08:00 +9°C° 0 mm 5 mps 745 mmHg 82%
    09:00 +10°C° 0.1 mm 6 mps 745 mmHg 80%
    10:00 +10°C° 0.1 mm 6 mps 745 mmHg 78%
    11:00 +11°C° 0.1 mm 6 mps 745 mmHg 76%
    12:00 +11°C° 0.1 mm 6 mps 745 mmHg 77%
    13:00 +11°C° 0.1 mm 7 mps 745 mmHg 78%
    14:00 +11°C° 0.1 mm 7 mps 744 mmHg 79%
    15:00 +11°C° 0 mm 7 mps 744 mmHg 79%
    16:00 +11°C° 0 mm 6 mps 744 mmHg 79%
    17:00 +11°C° 0 mm 6 mps 744 mmHg 80%
    18:00 +10°C° 0 mm 6 mps 743 mmHg 80%
    19:00 +10°C° 0 mm 6 mps 743 mmHg 80%
    20:00 +10°C° 0 mm 6 mps 743 mmHg 81%
    21:00 +10°C° 0.3 mm 6 mps 743 mmHg 84%
    22:00 +9°C° 0.3 mm 6 mps 743 mmHg 88%
    23:00 +9°C° 0.3 mm 6 mps 742 mmHg 92%

    3 June, Wednesday

    Time Temperature Precipitation Wind Pressure Humidity
    00:00 +9°C° 0.3 mm 6 mps 742 mmHg 93%
    01:00 +9°C° 0.3 mm 6 mps 742 mmHg 94%
    02:00 +9°C° 0.3 mm 5 mps 741 mmHg 96%
    03:00 +9°C° 0.1 mm 5 mps 741 mmHg 96%
    04:00 +10°C° 0.1 mm 6 mps 741 mmHg 96%
    05:00 +10°C° 0.1 mm 6 mps 740 mmHg 96%
    06:00 +10°C° 0.7 mm 5 mps 740 mmHg 96%
    07:00 +10°C° 0.7 mm 5 mps 740 mmHg 96%
    08:00 +10°C° 0.7 mm 5 mps 741 mmHg 96%
    09:00 +12°C° 0.3 mm 5 mps 741 mmHg 96%
    10:00 +13°C° 0.3 mm 5 mps 741 mmHg 95%
    11:00 +13°C° 0.3 mm 5 mps 741 mmHg 94%
    12:00 +14°C° 0.5 mm 5 mps 741 mmHg 90%
    13:00 +15°C° 0.5 mm 5 mps 741 mmHg 85%
    14:00 +16°C° 0.5 mm 5 mps 741 mmHg 81%
    15:00 +17°C° 0.2 mm 4 mps 741 mmHg 79%
    16:00 +17°C° 0.2 mm 3 mps 741 mmHg 76%
    17:00 +17°C° 0.2 mm 3 mps 741 mmHg 73%
    18:00 +16°C° 0 mm 2 mps 741 mmHg 78%
    19:00 +14°C° 0 mm 2 mps 741 mmHg 82%
    20:00 +13°C° 0 mm 2 mps 741 mmHg 87%
    21:00 +12°C° 0 mm 2 mps 741 mmHg 88%
    22:00 +12°C° 0 mm 2 mps 742 mmHg 89%
    23:00 +10°C° 0 mm 2 mps 742 mmHg 90%

    4 June, Thursday

    Time Temperature Precipitation Wind Pressure Humidity
    00:00 +10°C° 0 mm 2 mps 742 mmHg 91%
    01:00 +10°C° 0 mm 2 mps 742 mmHg 93%
    02:00 +9°C° 0 mm 2 mps 742 mmHg 94%
    03:00 +9°C° 0 mm 2 mps 742 mmHg 94%
    04:00 +9°C° 0 mm 2 mps 742 mmHg 94%
    05:00 +9°C° 0 mm 2 mps 742 mmHg 94%
    06:00 +12°C° 0.1 mm 2 mps 742 mmHg 89%
    07:00 +14°C° 0.1 mm 2 mps 742 mmHg 84%
    08:00 +14°C° 0.1 mm 3 mps 742 mmHg 79%
    09:00 +16°C° 0.5 mm 3 mps 742 mmHg 76%
    10:00 +17°C° 0.5 mm 3 mps 742 mmHg 73%
    11:00 +17°C° 0.5 mm 3 mps 742 mmHg 70%
    12:00 +18°C° 0.5 mm 4 mps 742 mmHg 70%
    13:00 +18°C° 0.5 mm 4 mps 741 mmHg 70%
    14:00 +18°C° 0.5 mm 4 mps 741 mmHg 71%
    15:00 +18°C° 0.5 mm 4 mps 741 mmHg 74%
    16:00 +17°C° 0.5 mm 3 mps 741 mmHg 77%
    17:00 +17°C° 0.5 mm 3 mps 741 mmHg 80%
    18:00 +16°C° 0.2 mm 3 mps 741 mmHg 84%
    19:00 +14°C° 0.2 mm 3 mps 741 mmHg 88%
    20:00 +13°C° 0.2 mm 2 mps 740 mmHg 93%
    21:00 +13°C° 0 mm 2 mps 740 mmHg 94%
    22:00 +12°C° 0 mm 2 mps 741 mmHg 95%
    23:00 +10°C° 0 mm 2 mps 741 mmHg 95%
    Show more